Hourly Data Report for September 30, 2017

All times are specified in Local Standard Time (LST). Add 1 hour to adjust for Daylight Saving Time where and when it is observed.

ARVIAT A
NUNAVUT

61°05'38.000" N
94°04'18.000" W
10.40 m
2300427
71174
YEK

Download Data

Hourly Data (September 2017)
Hourly Data Report for September 30, 2017
Temp Definition
°C
Dew Point Temp Definition
°C
Rel Hum Definition
%
Wind Dir Definition
10's deg

Wind Spd Definition
km/h
Visibility Definition
km
Stn Press Definition
kPa
Hmdx Definition


Wind Chill Definition


Weather Definition


TIME
00:00 Legend Double Dagger 7.0 6.3 95 34 15 16.1 100.04     LegendNANA
01:00 Legend Double Dagger 6.7 6.0 95 33 18 16.1 100.10     LegendNANA
02:00 Legend Double Dagger 6.6 5.9 95 33 18 16.1 100.17     LegendNANA
03:00 Legend Double Dagger 7.2 6.5 95 34 18 16.1 100.23     LegendNANA
04:00 Legend Double Dagger 7.3 5.8 90 34 28 16.1 100.30     LegendNANA
05:00 Legend Double Dagger 6.8 5.3 90 35 17 16.1 100.39     LegendNANA
06:00 Legend Double Dagger 5.2 3.2 87 36 32 16.1 100.48     LegendNANA
07:00 Legend Double Dagger 3.0 1.4 89 1 32 16.1 100.60     LegendNANA
08:00 Legend Double Dagger 2.3 0.6 89 36 26 16.1 100.72     LegendNANA
09:00 Legend Double Dagger 2.3 -0.4 82 36 26 16.1 100.82     LegendNANA
10:00 Legend Double Dagger 2.4 -1.8 74 2 30 16.1 100.91     LegendNANA
11:00 Legend Double Dagger 2.7 -1.2 75 2 26 16.1 101.04     LegendNANA
12:00 Legend Double Dagger 3.1 -2.1 69 3 30 16.1 101.15     LegendNANA
13:00 Legend Double Dagger 3.3 -1.9 69 3 28 16.1 101.23     LegendNANA
14:00 Legend Double Dagger 3.0 -1.4 73 4 30 16.1 101.31     LegendNANA
15:00 Legend Double Dagger 3.3 -1.0 73 5 26 16.1 101.39     LegendNANA
16:00 Legend Double Dagger 3.0 -1.1 74 4 24 16.1 101.47     LegendNANA
17:00 Legend Double Dagger 2.6 -1.3 76 6 24 16.1 101.52     LegendNANA
18:00 Legend Double Dagger 2.4 -1.0 78 7 26 16.1 101.59     LegendNANA
19:00 Legend Double Dagger 2.1 -1.1 79 9 24 16.1 101.68     LegendNANA
20:00 Legend Double Dagger 2.2 -0.9 80 9 24 16.1 101.75     LegendNANA
21:00 Legend Double Dagger 2.3 -1.3 77 10 21 16.1 101.81     LegendNANA
22:00 Legend Double Dagger 2.3 -1.2 78 11 24 16.1 101.80     LegendNANA
23:00 Legend Double Dagger 2.4 -0.7 80 10 26 16.1 101.82     LegendNANA

Notes on Data Quality.

Legend

  • E = Estimated
  • M = Missing
  • NA = Not Available
  • ‡ = Partner data that is not subject to review by the National Climate Archives
Date modified: